Time,TemperatureF,DewpointF,PressureIn,WindDirection,WindDirectionDegrees,WindSpeedMPH,WindSpeedGustMPH,Humidity,HourlyPrecipIn,Conditions,Clouds,dailyrainin,SoftwareType,DateUTC
2013-07-25 00:05:00,82.2,79.4,30.00,SE,135,6.2,8.5,91,-99.99,,,-99.99,WSDL version 420,2013-07-25 05:05:00,
2013-07-25 00:15:00,82.2,79.7,30.00,SE,124,6.4,8.1,92,-99.99,,,-99.99,WSDL version 420,2013-07-25 05:15:00,
2013-07-25 00:25:00,82.2,79.7,29.97,East,99,7.7,10.3,92,-99.99,,,-99.99,WSDL version 420,2013-07-25 05:25:00,
2013-07-25 00:35:00,82.2,79.9,30.00,SE,135,6.6,10.1,93,-99.99,,,-99.99,WSDL version 420,2013-07-25 05:35:00,
2013-07-25 00:45:00,82.2,80.1,30.00,ESE,120,8.0,10.5,93,-99.99,,,-99.99,WSDL version 420,2013-07-25 05:45:00,
2013-07-25 00:55:00,82.3,80.1,30.00,ESE,117,8.4,10.7,92,-99.99,,,-99.99,WSDL version 420,2013-07-25 05:55:00,
2013-07-25 01:05:00,82.4,79.9,30.00,SE,135,5.5,8.1,92,0.00,,,0.00,WSDL version 420,2013-07-25 06:05:00,
2013-07-25 01:15:00,82.4,80.0,30.00,SE,135,6.0,7.2,92,-99.99,,,-99.99,WSDL version 420,2013-07-25 06:15:00,
2013-07-25 01:25:00,82.4,79.9,30.00,ESE,113,7.9,11.2,92,-99.99,,,-99.99,WSDL version 420,2013-07-25 06:25:00,
2013-07-25 01:35:00,82.4,79.9,30.00,SE,135,7.4,9.8,92,-99.99,,,-99.99,WSDL version 420,2013-07-25 06:35:00,
2013-07-25 01:45:00,82.4,80.0,30.00,ESE,120,7.8,11.0,92,-99.99,,,-99.99,WSDL version 420,2013-07-25 06:45:00,
2013-07-25 01:55:00,82.3,80.1,30.00,SE,124,7.6,10.1,93,-99.99,,,-99.99,WSDL version 420,2013-07-25 06:55:00,
2013-07-25 02:05:00,82.2,80.1,30.00,SSE,150,7.0,8.7,93,-99.99,,,-99.99,WSDL version 420,2013-07-25 07:05:00,
2013-07-25 02:15:00,82.2,80.1,30.00,SE,135,6.9,8.7,93,-99.99,,,-99.99,WSDL version 420,2013-07-25 07:15:00,
2013-07-25 02:25:00,82.0,79.9,29.97,SE,146,7.0,10.5,93,-99.99,,,-99.99,WSDL version 420,2013-07-25 07:25:00,
2013-07-25 02:35:00,82.0,80.2,30.00,SE,126,6.1,8.7,94,-99.99,,,-99.99,WSDL version 420,2013-07-25 07:35:00,
2013-07-25 02:45:00,82.0,80.3,30.00,East,90,6.3,8.7,94,0.00,,,0.00,WSDL version 420,2013-07-25 07:45:00,
2013-07-25 02:55:00,82.0,80.3,29.97,ESE,120,6.3,9.8,94,-99.99,,,-99.99,WSDL version 420,2013-07-25 07:55:00,
2013-07-25 03:05:00,82.0,80.2,29.97,ESE,122,5.7,6.7,93,-99.99,,,-99.99,WSDL version 420,2013-07-25 08:05:00,
2013-07-25 03:15:00,82.0,80.3,29.97,SE,128,6.8,8.7,94,-99.99,,,-99.99,WSDL version 420,2013-07-25 08:15:00,
2013-07-25 03:25:00,82.0,80.3,29.97,East,99,6.8,7.8,94,-99.99,,,-99.99,WSDL version 420,2013-07-25 08:25:00,
2013-07-25 03:35:00,82.0,80.3,29.97,SSE,158,6.4,8.5,94,-99.99,,,-99.99,WSDL version 420,2013-07-25 08:35:00,
2013-07-25 03:45:00,82.0,80.3,29.97,ESE,109,6.5,10.1,94,0.00,,,0.00,WSDL version 420,2013-07-25 08:45:00,
2013-07-25 03:55:00,82.0,80.2,29.97,ESE,117,5.1,8.7,94,-99.99,,,-99.99,WSDL version 420,2013-07-25 08:55:00,
2013-07-25 04:05:00,82.0,80.3,29.97,SE,124,5.0,9.2,94,-99.99,,,-99.99,WSDL version 420,2013-07-25 09:05:00,
2013-07-25 04:15:00,81.9,80.1,29.97,SE,135,5.4,7.2,94,0.00,,,0.00,WSDL version 420,2013-07-25 09:15:00,
2013-07-25 04:25:00,81.9,80.1,29.97,ESE,105,5.2,8.5,94,-99.99,,,-99.99,WSDL version 420,2013-07-25 09:25:00,
2013-07-25 04:35:00,81.9,80.1,29.97,ESE,120,4.9,7.6,94,0.00,,,0.00,WSDL version 420,2013-07-25 09:35:00,
2013-07-25 04:45:00,81.9,80.1,29.97,ESE,120,4.9,7.4,94,0.00,,,0.00,WSDL version 420,2013-07-25 09:45:00,
2013-07-25 04:55:00,81.9,80.2,29.97,ESE,113,4.5,6.3,96,-99.99,,,-99.99,WSDL version 420,2013-07-25 09:55:00,
2013-07-25 05:05:00,81.8,80.2,29.97,ESE,120,5.3,7.6,94,-99.99,,,-99.99,WSDL version 420,2013-07-25 10:05:00,
2013-07-25 05:15:00,81.9,80.2,29.97,SE,126,5.8,6.3,94,0.00,,,0.00,WSDL version 420,2013-07-25 10:15:00,
2013-07-25 05:25:00,81.9,80.1,29.97,ESE,113,3.8,6.3,94,-99.99,,,-99.99,WSDL version 420,2013-07-25 10:25:00,
2013-07-25 05:35:00,81.7,80.3,29.97,SE,135,4.7,6.3,96,-99.99,,,-99.99,WSDL version 420,2013-07-25 10:35:00,
2013-07-25 05:45:00,81.7,80.3,29.97,ESE,116,4.7,6.5,96,0.00,,,0.00,WSDL version 420,2013-07-25 10:45:00,
2013-07-25 05:55:00,81.7,80.3,29.97,SSE,158,4.6,6.7,96,-99.99,,,-99.99,WSDL version 420,2013-07-25 10:55:00,
2013-07-25 06:05:00,81.7,80.3,30.00,SE,144,2.8,6.3,96,-99.99,,,-99.99,WSDL version 420,2013-07-25 11:05:00,
2013-07-25 06:15:00,81.6,80.2,30.00,SE,131,3.4,6.3,96,-99.99,,,-99.99,WSDL version 420,2013-07-25 11:15:00,
2013-07-25 06:25:00,81.5,80.1,30.00,ESE,120,3.5,5.8,96,0.00,,,0.00,WSDL version 420,2013-07-25 11:25:00,
2013-07-25 06:35:00,81.5,80.1,30.00,SE,135,4.7,7.2,96,0.00,,,0.00,WSDL version 420,2013-07-25 11:35:00,
2013-07-25 06:45:00,81.4,80.0,30.00,SE,124,3.7,5.8,96,0.00,,,0.00,WSDL version 420,2013-07-25 11:45:00,
2013-07-25 06:55:00,81.4,80.0,30.00,SE,143,3.4,6.0,96,-99.99,,,-99.99,WSDL version 420,2013-07-25 11:55:00,
2013-07-25 07:05:00,81.5,80.1,30.00,SE,146,3.8,7.8,96,-99.99,,,-99.99,WSDL version 420,2013-07-25 12:05:00,
2013-07-25 07:15:00,81.7,80.3,30.00,East,99,5.1,7.6,96,0.00,,,0.00,WSDL version 420,2013-07-25 12:15:00,
2013-07-25 07:25:00,82.3,80.8,30.00,ESE,113,5.4,7.6,94,0.00,,,0.00,WSDL version 420,2013-07-25 12:25:00,
2013-07-25 07:35:00,82.8,80.9,30.00,SE,135,5.0,7.4,93,-99.99,,,-99.99,WSDL version 420,2013-07-25 12:35:00,
2013-07-25 07:45:00,83.4,81.2,30.00,East,90,6.5,9.2,93,0.00,,,0.00,WSDL version 420,2013-07-25 12:45:00,
2013-07-25 07:55:00,83.9,81.4,30.03,SE,135,5.1,7.8,92,0.00,,,0.00,WSDL version 420,2013-07-25 12:55:00,
2013-07-25 08:05:00,84.5,81.2,30.03,ESE,113,5.6,8.5,90,0.00,,,0.00,WSDL version 420,2013-07-25 13:05:00,
2013-07-25 08:15:00,85.1,81.5,30.03,SE,124,4.3,8.5,89,-99.99,,,-99.99,WSDL version 420,2013-07-25 13:15:00,
2013-07-25 08:25:00,85.6,81.6,30.03,SE,129,5.8,8.5,88,0.00,,,0.00,WSDL version 420,2013-07-25 13:25:00,
2013-07-25 08:35:00,85.8,81.5,30.03,ESE,105,6.1,10.3,87,-99.99,,,-99.99,WSDL version 420,2013-07-25 13:35:00,
2013-07-25 08:45:00,86.3,81.5,30.03,East,98,7.1,10.5,86,-99.99,,,-99.99,WSDL version 420,2013-07-25 13:45:00,
2013-07-25 08:55:00,86.9,81.4,30.03,ESE,120,8.0,11.2,83,-99.99,,,-99.99,WSDL version 420,2013-07-25 13:55:00,
2013-07-25 09:05:00,87.1,81.0,30.03,SE,141,7.8,11.9,82,-99.99,,,-99.99,WSDL version 420,2013-07-25 14:05:00,
2013-07-25 09:15:00,87.3,80.8,30.03,ESE,120,7.5,12.5,81,0.00,,,0.00,WSDL version 420,2013-07-25 14:15:00,
2013-07-25 09:25:00,87.6,80.6,30.03,ESE,116,7.7,10.5,80,0.00,,,0.00,WSDL version 420,2013-07-25 14:25:00,
2013-07-25 09:35:00,88.3,80.8,30.03,SE,135,7.3,13.0,78,0.00,,,0.00,WSDL version 420,2013-07-25 14:35:00,
2013-07-25 09:45:00,88.5,80.6,30.03,SSE,150,6.6,12.3,77,0.00,,,0.00,WSDL version 420,2013-07-25 14:45:00,
2013-07-25 09:55:00,88.7,80.3,30.03,SE,135,7.8,10.5,77,-99.99,,,-99.99,WSDL version 420,2013-07-25 14:55:00,
2013-07-25 10:05:00,88.8,79.9,30.03,SE,135,7.8,11.0,74,0.00,,,0.00,WSDL version 420,2013-07-25 15:05:00,
2013-07-25 10:15:00,89.2,80.2,30.03,ESE,107,9.2,11.4,75,0.00,,,0.00,WSDL version 420,2013-07-25 15:15:00,
2013-07-25 10:25:00,89.5,79.6,30.03,SE,129,9.5,11.9,73,0.00,,,0.00,WSDL version 420,2013-07-25 15:25:00,
2013-07-25 10:35:00,89.7,79.4,30.03,SE,135,8.3,12.8,71,-99.99,,,-99.99,WSDL version 420,2013-07-25 15:35:00,
2013-07-25 10:45:00,90.0,79.5,30.03,ESE,120,8.6,12.3,72,0.00,,,0.00,WSDL version 420,2013-07-25 15:45:00,
2013-07-25 10:55:00,90.1,79.7,30.03,ESE,120,8.7,13.0,71,0.00,,,0.00,WSDL version 420,2013-07-25 15:55:00,
2013-07-25 11:05:00,90.2,79.5,30.03,SE,128,9.3,13.4,70,0.00,,,0.00,WSDL version 420,2013-07-25 16:05:00,
2013-07-25 11:15:00,90.1,79.5,30.03,SE,124,11.1,15.2,71,-99.99,,,-99.99,WSDL version 420,2013-07-25 16:15:00,
2013-07-25 11:25:00,90.5,79.6,30.03,ESE,104,8.4,14.3,71,0.00,,,0.00,WSDL version 420,2013-07-25 16:25:00,
2013-07-25 11:35:00,90.1,79.1,30.06,ESE,108,14.3,17.9,71,0.00,,,0.00,WSDL version 420,2013-07-25 16:35:00,
2013-07-25 11:45:00,90.3,78.5,30.06,SE,129,11.4,15.2,69,-99.99,,,-99.99,WSDL version 420,2013-07-25 16:45:00,
2013-07-25 11:55:00,-999.0,-99.9,30.03,SE,128,10.4,13.6,-999,-99.99,,,-99.99,WSDL version 420,2013-07-25 16:55:00,
2013-07-25 12:05:00,91.0,78.6,30.06,SE,141,9.7,15.9,68,0.00,,,0.00,WSDL version 420,2013-07-25 17:05:00,
2013-07-25 12:15:00,90.8,78.1,30.06,ESE,122,10.2,19.2,67,0.00,,,0.00,WSDL version 420,2013-07-25 17:15:00,
2013-07-25 12:25:00,91.3,79.1,30.06,SE,131,10.7,15.4,68,0.00,,,0.00,WSDL version 420,2013-07-25 17:25:00,
2013-07-25 12:35:00,90.9,79.2,30.06,ESE,113,10.3,17.7,68,-99.99,,,-99.99,WSDL version 420,2013-07-25 17:35:00,
2013-07-25 12:45:00,90.7,78.7,30.06,East,96,12.6,19.2,69,0.00,,,0.00,WSDL version 420,2013-07-25 17:45:00,
2013-07-25 12:55:00,91.6,79.4,30.06,East,90,10.2,15.9,68,0.00,,,0.00,WSDL version 420,2013-07-25 17:55:00,
2013-07-25 13:05:00,90.5,79.2,30.06,ESE,122,12.1,17.4,70,0.00,,,0.00,WSDL version 420,2013-07-25 18:05:00,
2013-07-25 13:15:00,90.5,79.1,30.06,East,96,12.7,17.7,70,0.00,,,0.00,WSDL version 420,2013-07-25 18:15:00,
2013-07-25 13:25:00,90.8,78.8,30.03,SE,126,11.5,16.1,68,-99.99,,,-99.99,WSDL version 420,2013-07-25 18:25:00,
2013-07-25 13:35:00,91.2,79.0,30.03,East,90,9.9,17.0,68,-99.99,,,-99.99,WSDL version 420,2013-07-25 18:35:00,
2013-07-25 13:45:00,90.6,78.1,30.03,East,96,13.0,17.0,67,0.00,,,0.00,WSDL version 420,2013-07-25 18:45:00,
2013-07-25 13:55:00,90.9,78.9,30.06,East,81,11.6,16.3,68,-99.99,,,-99.99,WSDL version 420,2013-07-25 18:55:00,
2013-07-25 14:05:00,90.6,78.8,30.06,East,98,12.5,16.3,69,0.00,,,0.00,WSDL version 420,2013-07-25 19:05:00,
2013-07-25 14:15:00,90.3,77.9,30.06,East,101,13.9,17.4,67,-99.99,,,-99.99,WSDL version 420,2013-07-25 19:15:00,
2013-07-25 14:25:00,90.5,78.6,30.06,East,83,10.7,19.2,68,0.00,,,0.00,WSDL version 420,2013-07-25 19:25:00,
2013-07-25 14:35:00,90.0,78.9,30.03,ESE,103,13.5,19.2,70,-99.99,,,-99.99,WSDL version 420,2013-07-25 19:35:00,
2013-07-25 14:45:00,90.1,79.5,30.03,East,83,10.1,18.8,71,-99.99,,,-99.99,WSDL version 420,2013-07-25 19:45:00,
2013-07-25 14:55:00,90.2,78.8,30.03,East,96,12.9,16.8,69,-99.99,,,-99.99,WSDL version 420,2013-07-25 19:55:00,
2013-07-25 15:05:00,89.7,78.4,30.03,ESE,105,12.9,19.0,71,0.00,,,0.00,WSDL version 420,2013-07-25 20:05:00,
2013-07-25 15:15:00,90.7,78.8,30.03,ESE,109,12.4,16.6,68,0.00,,,0.00,WSDL version 420,2013-07-25 20:15:00,
2013-07-25 15:25:00,90.5,78.8,30.03,East,99,13.8,20.8,69,-99.99,,,-99.99,WSDL version 420,2013-07-25 20:25:00,
2013-07-25 15:35:00,89.9,78.4,30.00,ESE,105,14.7,19.2,69,0.00,,,0.00,WSDL version 420,2013-07-25 20:35:00,
2013-07-25 15:45:00,90.3,78.6,30.00,ESE,103,14.1,17.7,68,0.00,,,0.00,WSDL version 420,2013-07-25 20:45:00,
2013-07-25 15:55:00,90.6,78.5,30.03,East,96,14.6,19.0,68,-99.99,,,-99.99,WSDL version 420,2013-07-25 20:55:00,
2013-07-25 16:05:00,90.3,78.8,30.03,East,96,11.7,17.7,68,-99.99,,,-99.99,WSDL version 420,2013-07-25 21:05:00,
2013-07-25 16:15:00,90.1,78.5,30.03,East,96,13.9,22.6,69,-99.99,,,-99.99,WSDL version 420,2013-07-25 21:15:00,
2013-07-25 16:25:00,90.3,77.8,30.03,ESE,105,12.8,19.9,67,-99.99,,,-99.99,WSDL version 420,2013-07-25 21:25:00,
2013-07-25 16:35:00,90.3,78.7,30.03,ESE,105,13.2,19.2,69,-99.99,,,-99.99,WSDL version 420,2013-07-25 21:35:00,
2013-07-25 16:45:00,90.0,78.6,30.03,ESE,113,15.8,19.7,70,-99.99,,,-99.99,WSDL version 420,2013-07-25 21:45:00,
2013-07-25 16:55:00,89.7,78.8,30.03,ESE,103,15.3,21.5,71,-99.99,,,-99.99,WSDL version 420,2013-07-25 21:55:00,
2013-07-25 17:05:00,89.0,79.1,30.03,ENE,75,13.7,19.9,73,-99.99,,,-99.99,WSDL version 420,2013-07-25 22:05:00,
2013-07-25 17:15:00,88.5,79.3,30.03,ESE,105,11.8,20.1,75,-99.99,,,-99.99,WSDL version 420,2013-07-25 22:15:00,
2013-07-25 17:25:00,88.7,79.6,30.03,East,96,12.5,16.8,75,-99.99,,,-99.99,WSDL version 420,2013-07-25 22:25:00,
2013-07-25 17:35:00,89.2,78.6,30.03,ESE,109,12.1,17.7,71,-99.99,,,-99.99,WSDL version 420,2013-07-25 22:35:00,
2013-07-25 17:45:00,89.6,76.3,30.03,ESE,113,11.4,17.0,67,-99.99,,,-99.99,WSDL version 420,2013-07-25 22:45:00,
2013-07-25 17:55:00,89.4,77.7,30.03,ESE,118,11.5,17.9,70,-99.99,,,-99.99,WSDL version 420,2013-07-25 22:55:00,
2013-07-25 18:05:00,89.1,77.5,30.03,ESE,120,14.2,17.4,68,-99.99,,,-99.99,WSDL version 420,2013-07-25 23:05:00,
2013-07-25 18:15:00,89.2,78.8,30.03,ESE,107,11.4,17.2,72,-99.99,,,-99.99,WSDL version 420,2013-07-25 23:15:00,
2013-07-25 18:25:00,89.1,78.6,30.03,ESE,113,10.7,15.7,72,-99.99,,,-99.99,WSDL version 420,2013-07-25 23:25:00,
2013-07-25 18:35:00,88.8,77.9,30.06,ESE,120,11.6,15.2,70,-99.99,,,-99.99,WSDL version 420,2013-07-25 23:35:00,
2013-07-25 18:45:00,88.3,78.0,30.06,ESE,103,13.6,17.7,72,-99.99,,,-99.99,WSDL version 420,2013-07-25 23:45:00,
2013-07-25 18:55:00,87.9,78.5,30.03,ESE,122,13.7,16.3,74,0.00,,,0.00,WSDL version 420,2013-07-25 23:55:00,
2013-07-25 19:05:00,87.5,78.6,30.03,ESE,108,11.0,17.4,76,-99.99,,,-99.99,WSDL version 420,2013-07-26 00:05:00,
2013-07-25 19:15:00,87.3,79.0,30.03,East,90,11.8,15.7,77,-99.99,,,-99.99,WSDL version 420,2013-07-26 00:15:00,
2013-07-25 19:25:00,86.9,79.1,30.03,East,101,12.1,19.5,77,-99.99,,,-99.99,WSDL version 420,2013-07-26 00:25:00,
2013-07-25 19:35:00,86.4,79.7,30.03,SE,135,13.2,13.2,81,-99.99,,,-99.99,WSDL version 420,2013-07-26 00:35:00,
2013-07-25 19:45:00,86.1,80.1,30.03,SE,135,11.0,14.8,82,-99.99,,,-99.99,WSDL version 420,2013-07-26 00:45:00,
2013-07-25 19:55:00,85.5,79.9,30.03,SE,126,9.6,14.8,83,-99.99,,,-99.99,WSDL version 420,2013-07-26 00:55:00,
2013-07-25 20:05:00,85.1,79.1,30.03,East,99,9.8,17.4,82,-99.99,,,-99.99,WSDL version 420,2013-07-26 01:05:00,
2013-07-25 20:15:00,84.7,79.1,30.03,ESE,120,12.0,18.1,83,-99.99,,,-99.99,WSDL version 420,2013-07-26 01:15:00,
2013-07-25 20:25:00,84.6,79.5,30.03,East,95,7.7,14.8,86,-99.99,,,-99.99,WSDL version 420,2013-07-26 01:25:00,
2013-07-25 20:35:00,84.3,79.1,30.03,ESE,113,10.6,15.9,84,-99.99,,,-99.99,WSDL version 420,2013-07-26 01:35:00,
2013-07-25 20:45:00,84.1,79.3,30.03,East,101,9.7,15.9,86,-99.99,,,-99.99,WSDL version 420,2013-07-26 01:45:00,
2013-07-25 20:55:00,84.0,79.3,30.03,ESE,108,9.7,14.3,86,-99.99,,,-99.99,WSDL version 420,2013-07-26 01:55:00,
2013-07-25 21:05:00,83.9,79.5,30.03,East,90,10.1,14.8,87,-99.99,,,-99.99,WSDL version 420,2013-07-26 02:05:00,
2013-07-25 21:15:00,83.8,79.7,30.03,ESE,113,10.2,15.4,87,-99.99,,,-99.99,WSDL version 420,2013-07-26 02:15:00,
2013-07-25 21:25:00,83.8,79.8,30.03,ESE,105,10.4,14.8,88,-99.99,,,-99.99,WSDL version 420,2013-07-26 02:25:00,
2013-07-25 21:35:00,83.7,79.6,30.03,East,99,8.4,12.3,88,-99.99,,,-99.99,WSDL version 420,2013-07-26 02:35:00,
2013-07-25 21:45:00,83.7,79.9,30.03,East,96,6.5,10.7,89,-99.99,,,-99.99,WSDL version 420,2013-07-26 02:45:00,
2013-07-25 21:55:00,83.5,79.9,30.03,East,90,8.3,12.8,89,-99.99,,,-99.99,WSDL version 420,2013-07-26 02:55:00,
2013-07-25 22:05:00,83.5,79.9,30.03,SE,124,9.7,13.2,89,-99.99,,,-99.99,WSDL version 420,2013-07-26 03:05:00,
2013-07-25 22:15:00,83.4,79.7,30.03,SE,135,9.1,13.2,89,-99.99,,,-99.99,WSDL version 420,2013-07-26 03:15:00,
2013-07-25 22:25:00,83.3,79.8,30.06,ESE,109,11.6,13.0,89,0.00,,,0.00,WSDL version 420,2013-07-26 03:25:00,
2013-07-25 22:35:00,83.3,79.8,30.06,SE,129,9.9,13.0,89,-99.99,,,-99.99,WSDL version 420,2013-07-26 03:35:00,
2013-07-25 22:45:00,-999.0,-99.9,30.06,SE,126,7.8,11.0,-999,-99.99,,,-99.99,WSDL version 420,2013-07-26 03:45:00,
2013-07-25 22:55:00,83.3,79.8,30.06,ESE,120,10.6,13.4,89,-99.99,,,-99.99,WSDL version 420,2013-07-26 03:55:00,
2013-07-25 23:05:00,83.2,79.5,30.06,SE,135,8.3,13.0,89,-99.99,,,-99.99,WSDL version 420,2013-07-26 04:05:00,
2013-07-25 23:15:00,83.1,79.6,30.06,ESE,118,9.1,12.8,90,-99.99,,,-99.99,WSDL version 420,2013-07-26 04:15:00,
2013-07-25 23:25:00,83.1,79.6,30.06,East,84,8.6,13.0,90,-99.99,,,-99.99,WSDL version 420,2013-07-26 04:25:00,
2013-07-25 23:35:00,83.1,79.9,30.06,SE,144,9.6,15.2,90,-99.99,,,-99.99,WSDL version 420,2013-07-26 04:35:00,
2013-07-25 23:45:00,-999.0,-99.9,30.06,East,101,9.7,14.8,-999,-99.99,,,-99.99,WSDL version 420,2013-07-26 04:45:00,
2013-07-25 23:55:00,82.9,79.7,30.06,ESE,116,9.6,13.0,90,-99.99,,,-99.99,WSDL version 420,2013-07-26 04:55:00,